This is the latest recevied weather packets stored in our database for station/object KE6LRO. If no packets are shown the sender has not sent any weather packets the latest 10 day(s).
| Time | Temp. | Humidity | Pressure | Rain* | Wind** | Luminosity | Snow |
|---|---|---|---|---|---|---|---|
| 1778017029 | 16.11° C | 29% | 1018.6 hPa | 0 mm | - | 688 W/m² | - |
| 1778016726 | 15.56° C | 32% | 1018.7 hPa | 0 mm | - | 739 W/m² | - |
| 1778016422 | 15° C | 34% | 1018.5 hPa | 0 mm | - | 739 W/m² | - |
| 1778016120 | 15.56° C | 32% | 1018.6 hPa | 0 mm | - | 194 W/m² | - |
| 1778015816 | 16.67° C | 31% | 1018.5 hPa | 0 mm | - | 246 W/m² | - |
| 1778015514 | 16.11° C | 34% | 1018.5 hPa | 0 mm | - | 676 W/m² | - |
| 1778015210 | 16.11° C | 32% | 1018.5 hPa | 0 mm | - | 400 W/m² | - |
| 1778014907 | 16.11° C | 34% | 1018.7 hPa | 0 mm | - | 816 W/m² | - |
| 1778014604 | 16.67° C | 33% | 1018.5 hPa | 0 mm | - | 257 W/m² | - |
| 1778014303 | 17.22° C | 32% | 1018.5 hPa | 0 mm | - | 879 W/m² | - |
| 1778013999 | 17.22° C | 31% | 1018.5 hPa | 0 mm | - | 397 W/m² | - |
| 1778013697 | 15.56° C | 32% | 1018.4 hPa | 0 mm | - | 852 W/m² | - |
| 1778013393 | 16.11° C | 32% | 1018.5 hPa | 0 mm | - | 271 W/m² | - |
| 1778013091 | 17.22° C | 31% | 1018.6 hPa | 0 mm | - | 313 W/m² | - |
| 1778012786 | 16.67° C | 31% | 1018.6 hPa | 0 mm | - | 884 W/m² | - |
| 1778012482 | 15.56° C | 32% | 1018.7 hPa | 0 mm | - | 850 W/m² | - |
| 1778012179 | 16.11° C | 32% | 1018.7 hPa | 0 mm | - | 828 W/m² | - |
| 1778011877 | 16.67° C | 32% | 1018.5 hPa | 0 mm | - | 856 W/m² | - |
| 1778011575 | 16.67° C | 30% | 1018.4 hPa | 0 mm | - | 895 W/m² | - |
| 1778011271 | 16.11° C | 31% | 1018.4 hPa | 0 mm | - | 857 W/m² | - |
| 1778010968 | 16.11° C | 31% | 1018.4 hPa | 0 mm | - | 804 W/m² | - |
| 1778010665 | 17.22° C | 30% | 1018.6 hPa | 0 mm | - | 793 W/m² | - |
| 1778010362 | 16.11° C | 29% | 1018.5 hPa | 0 mm | - | 782 W/m² | - |
| 1778010058 | 16.11° C | 33% | 1018.5 hPa | 0 mm | - | 782 W/m² | - |
| 1778009755 | 16.11° C | 30% | 1018.5 hPa | 0 mm | - | 782 W/m² | - |
* Rain latest hour (hover to see other rain measurements)
** Current wind speed in m/s (hover to see current wind gust speed)